Orbital Elements at Epoch 2459200.5 (2020-Dec-17.0) TDB
Reference: JPL 24 (heliocentric ecliptic J2000)
Element | Value | Uncertainty (1-sigma) | Units |
e | .04315308010451432 | 5.0078e-08 | |
a | 1.898211198423807 | 7.9986e-09 | au |
q | 1.816297538522939 | 9.2734e-08 | au |
i | 23.50267184916117 | 6.1922e-06 | deg |
node | 293.1077417578261 | 1.2094e-05 | deg |
peri | 239.2230605890628 | 8.0671e-05 | deg |
M | 173.3594924566642 | 8.3265e-05 | deg |
tp | 2458740.497332941429 (2019-Sep-13.99733294) | 0.00022003 | TDB |
period | 955.2459908273079 2.62 | 6.0378e-06 1.653e-08 | d yr |
n | .3768662768091971 | 2.382e-09 | deg/d |
Q | 1.980124858324676 | 8.3438e-09 | au |
|
| | Orbit Determination Parameters
Additional Information
|